Wind_Speed
80 77 76 74 75 76 76 77 78 79 80 82 82 83 84 81 80 85 83 78 78 77 75 75 76 76 79 79 77 77 75 72 70 65 57 52 53 56 57 56 56 58 58 58 60 59 59 59 57 56 57 58 58 58 58 57 56 56 56 55 54 54 55 55 57 59 59 59 58 59 59 60 60 58 57 57 57 58 58 59 62 64 65 65 63 61 61
76 75 73 71 71 72 72 73 75 76 76 77 78 79 77 74 76 78 75 74 74 71 66 65 65 66 68 69 68 65 63 63 61 57 54 55 56 60 61 58 58 61 62 62 63 63 63 63 63 62 62 61 62 63 63 61 60 60 61 60 59 60 60 59 58 58 59 58 58 58 57 57 57 57 57 58 59 60 61 61 62 64 64 64 62 61 61
74 71 69 67 67 68 69 70 70 68 67 69 71 72 69 67 70 70 70 73 74 69 65 65 66 66 64 62 62 60 58 57 56 58 62 64 62 63 63 62 61 63 64 66 67 68 68 68 68 68 67 66 67 67 67 66 65 65 66 66 66 65 63 61 59 58 58 58 57 56 55 55 54 55 56 58 59 60 61 61 62 64 64 63 61 60 60
74 71 69 69 68 69 71 71 70 68 67 69 71 70 67 67 69 70 72 75 77 73 71 71 70 69 67 63 61 61 60 61 64 68 72 73 71 69 67 65 63 64 66 68 70 71 70 70 71 72 73 74 74 75 75 75 75 75 75 74 71 65 60 58 56 56 57 57 56 55 54 53 53 54 56 57 58 59 60 62 63 64 64 63 60 59 59
77 73 72 72 72 74 76 75 72 72 72 73 73 72 71 70 71 74 76 77 77 76 75 74 72 69 67 66 66 67 68 68 72 75 77 78 77 75 73 71 69 69 70 72 73 73 72 73 76 78 80 81 80 81 82 82 81 81 80 79 74 65 60 58 56 56 56 56 55 54 52 52 54 55 57 59 60 61 62 63 64 65 64 63 61 60 58
79 74 70 70 71 73 75 72 70 70 71 73 75 74 71 68 68 71 73 73 75 77 78 76 73 69 66 66 69 71 71 72 74 76 75 75 76 76 76 76 75 75 75 75 76 78 80 82 82 81 83 84 85 86 86 85 84 83 80 77 71 65 62 61 59 57 57 56 55 54 55 55 56 57 58 59 61 63 64 65 65 66 66 64 62 59 56
81 79 75 76 78 77 77 75 73 72 73 74 75 71 67 67 69 71 72 75 77 79 78 76 74 70 66 66 68 68 69 71 72 71 70 70 72 73 74 74 74 75 75 75 78 83 87 88 86 84 85 87 87 86 85 85 84 82 78 74 69 66 64 62 60 58 57 56 56 57 58 57 57 57 58 60 62 64 65 67 67 67 67 65 60 57 54
80 81 81 85 86 82 79 78 76 76 75 75 74 72 70 73 76 75 76 79 81 80 79 77 75 71 68 68 69 66 66 69 70 69 67 65 65 67 68 71 72 74 75 76 78 80 82 83 83 83 83 85 85 83 81 82 81 78 75 73 70 68 67 65 61 58 57 57 57 57 58 59 58 58 58 60 63 65 67 68 68 69 68 63 58 56 53
76 77 81 86 86 85 85 85 83 82 81 79 78 77 78 80 82 82 84 85 83 80 77 74 72 67 64 64 66 64 64 67 68 68 67 64 63 64 66 68 71 73 74 75 75 75 76 77 79 79 79 81 82 79 77 78 79 77 76 75 72 70 69 68 65 60 59 59 59 58 59 60 60 60 60 61 63 65 66 67 69 70 67 61 58 57 54
74 75 77 77 73 71 73 78 81 81 79 76 74 72 72 73 73 74 76 78 78 77 74 70 67 64 61 61 63 65 66 66 65 64 62 61 61 62 63 65 67 68 69 70 72 73 74 75 75 75 75 76 78 78 77 78 80 79 78 78 75 73 72 72 69 65 63 62 61 61 61 61 62 61 61 61 62 63 65 66 69 71 67 61 59 59 55
75 75 76 73 65 57 55 63 73 75 72 71 69 65 63 64 64 64 65 67 69 71 71 70 69 69 68 66 65 67 68 66 64 63 62 62 63 63 64 65 65 63 62 62 64 68 70 72 72 72 72 73 74 75 77 79 81 81 80 80 78 75 75 76 73 69 65 63 63 64 64 63 63 62 62 62 63 64 65 65 67 69 66 61 60 60 57
76 76 78 77 76 73 71 76 82 81 76 73 68 65 64 64 66 69 70 72 74 76 78 79 80 80 79 76 73 73 74 73 71 71 70 70 68 67 67 67 67 65 64 62 61 62 66 69 70 72 74 74 74 75 76 76 78 79 80 80 80 79 78 77 75 70 65 63 63 65 65 65 64 63 63 63 63 64 64 64 64 66 65 64 64 63 62
75 76 79 80 81 84 86 88 89 87 83 78 73 73 75 73 74 76 78 80 84 86 87 86 85 83 82 81 80 79 79 79 80 79 77 73 69 67 67 68 69 69 68 65 63 62 63 67 69 71 73 75 76 76 76 74 73 74 76 77 78 78 75 73 71 68 65 63 65 66 67 67 67 66 64 62 62 62 62 62 62 62 63 65 66 66 64
72 74 77 80 81 82 84 87 88 88 87 86 84 85 85 82 80 77 73 73 77 81 83 84 83 82 80 78 76 75 76 79 81 81 78 75 72 71 72 71 71 70 69 67 65 64 63 66 69 70 71 72 72 73 73 72 73 73 74 75 75 74 73 70 68 65 65 65 67 68 69 70 70 68 64 62 61 60 60 60 60 60 62 63 64 65 64
71 72 74 77 79 78 79 82 85 85 87 89 92 93 92 91 91 88 82 77 73 72 74 76 78 81 81 79 78 77 77 79 79 78 75 75 75 76 76 76 75 74 73 70 66 64 65 67 69 70 70 70 70 71 72 73 74 75 75 76 76 75 75 73 69 67 68 68 69 71 71 72 70 68 65 62 61 60 59 60 60 60 60 61 63 65 66
71 72 72 73 74 74 74 77 80 83 85 87 90 92 94 96 97 98 97 95 91 88 85 83 81 82 82 83 83 82 80 78 76 74 72 72 73 73 75 76 77 76 74 71 67 64 64 66 67 69 69 69 70 71 73 74 75 76 76 76 77 76 76 75 72 71 71 70 71 71 71 70 69 67 65 63 62 61 60 60 60 59 60 61 63 66 69
69 71 71 70 70 71 70 73 76 79 81 83 85 88 90 93 96 98 99 99 99 101 101 99 94 88 83 80 79 79 79 77 75 74 72 70 70 70 72 76 78 78 75 72 69 66 63 64 66 68 69 70 70 72 73 73 73 73 74 74 74 74 74 74 74 73 72 71 69 68 68 67 66 65 65 64 63 62 61 60 59 60 60 62 63 66 70
66 68 68 67 68 69 68 69 72 74 76 78 80 81 82 84 88 92 94 97 98 100 103 105 103 96 88 80 75 73 74 74 74 74 73 70 69 69 70 72 75 76 74 73 73 71 67 65 67 69 70 70 71 72 74 73 72 72 72 72 73 74 74 73 73 72 71 69 67 66 65 65 64 65 65 64 63 62 61 60 59 60 62 64 66 69 72
62 63 62 61 62 64 65 65 66 68 70 73 75 77 78 80 81 83 85 88 90 93 96 100 102 102 100 96 88 81 76 73 73 74 75 73 71 70 69 69 70 72 72 72 74 75 72 69 70 72 73 73 73 75 76 75 74 73 72 72 73 74 74 73 72 72 71 69 67 66 66 65 65 65 66 65 63 62 61 60 61 62 63 63 65 67 70
60 62 61 60 60 60 62 63 64 65 68 71 73 75 78 81 83 85 86 87 88 89 90 91 93 96 100 104 104 99 93 88 86 87 86 83 79 76 73 71 71 72 73 75 76 76 75 74 74 76 76 77 77 78 79 79 78 77 77 76 76 75 74 73 73 73 72 71 69 68 68 67 67 67 68 68 66 64 63 63 63 63 64 65 66 68 71
61 62 60 58 59 61 62 63 64 66 69 71 73 75 77 79 81 84 87 90 92 94 94 93 92 92 93 96 102 105 105 103 103 104 104 100 95 90 85 82 80 80 81 81 82 81 80 79 80 80 79 79 80 81 82 82 81 80 80 80 79 77 76 76 75 75 75 74 73 72 72 71 71 70 70 71 71 69 67 66 66 66 67 69 71 72 73
61 58 51 49 53 58 59 59 61 64 67 71 74 75 76 77 79 82 84 86 89 92 94 96 97 98 97 97 98 101 103 104 106 108 109 108 105 102 99 97 95 93 90 87 85 84 83 83 83 82 81 80 81 83 85 84 82 81 81 81 80 79 79 79 78 77 77 77 77 76 76 76 75 74 73 73 74 74 72 69 69 70 70 71 72 74 75
56 52 46 43 46 50 50 50 53 56 59 64 67 69 71 73 76 80 82 84 85 87 88 90 93 96 99 101 102 104 104 104 105 106 107 107 105 104 103 102 100 98 96 91 87 84 83 83 84 84 82 82 83 85 88 88 86 83 82 83 83 81 81 80 80 79 80 80 80 79 78 77 77 76 76 76 77 77 76 74 74 74 74 73 74 75 76
48 48 46 45 46 47 48 49 51 54 57 60 63 65 67 70 72 75 77 80 82 83 84 84 86 89 92 96 99 102 104 106 107 107 108 107 105 104 103 102 100 98 97 95 90 86 84 83 84 84 83 82 83 86 89 91 90 88 85 85 85 85 84 83 83 83 83 82 82 80 78 78 78 78 79 80 80 80 80 79 78 77 76 74 75 76 77
49 50 51 51 51 51 52 54 56 58 60 62 63 64 66 68 69 71 72 74 76 79 81 82 83 84 87 90 92 95 97 100 101 103 105 106 105 105 105 105 103 102 100 98 96 93 91 88 87 86 84 82 83 86 89 92 93 91 88 86 86 87 87 87 87 87 87 85 84 81 80 80 81 81 81 82 83 83 83 83 83 81 80 79 78 78 78
53 55 55 55 54 53 55 57 58 58 59 62 63 65 66 67 68 69 69 70 72 73 76 77 78 80 81 84 86 89 90 92 94 95 97 99 101 103 107 108 109 108 107 105 102 100 99 97 94 92 88 85 84 87 89 91 94 94 91 89 88 88 89 88 87 87 88 88 87 85 84 84 85 84 81 80 81 82 83 84 83 83 83 82 80 77 78
56 57 55 55 54 54 55 56 57 57 58 60 62 63 64 65 66 67 67 67 68 70 71 72 73 74 75 77 79 81 82 84 86 88 90 92 94 97 101 106 108 110 111 111 110 109 108 107 105 102 97 94 95 98 98 96 96 95 93 91 91 90 89 88 86 86 87 88 87 87 87 88 88 88 87 85 84 83 84 84 83 82 83 83 83 85 88
56 54 53 54 55 55 55 56 56 57 57 59 60 62 63 63 64 65 65 66 67 68 67 68 69 70 70 71 73 74 75 76 77 79 81 83 86 89 93 98 103 107 110 112 114 115 116 116 115 114 112 110 111 113 112 108 104 100 97 94 94 93 92 90 89 88 88 88 88 88 88 88 89 90 91 90 89 88 87 87 86 86 87 88 90 94 98
53 52 53 55 55 55 54 54 55 55 56 57 59 60 61 63 64 65 65 65 66 66 66 66 67 68 68 68 69 70 70 70 69 70 72 73 76 79 83 87 92 98 102 106 109 112 114 116 116 117 116 115 114 114 114 111 108 107 106 103 99 97 95 94 93 92 91 91 92 93 93 94 93 93 93 93 93 92 91 90 90 90 92 94 96 100 103
52 54 55 54 53 52 52 52 53 53 54 56 58 59 61 64 66 66 66 66 67 67 67 67 67 66 67 67 66 66 67 66 65 65 66 67 68 70 73 77 81 85 88 92 96 100 102 105 107 108 109 109 108 108 108 106 105 107 112 113 111 108 105 102 101 101 100 99 99 100 102 104 103 100 99 98 98 98 97 97 97 96 96 95 95 98 100
54 56 55 53 51 50 50 50 51 53 55 58 60 61 63 65 67 68 68 69 69 68 68 67 66 65 64 63 62 62 62 61 61 61 61 62 64 66 68 71 73 75 76 78 82 85 88 90 91 92 94 95 96 97 98 98 98 101 106 110 111 109 106 104 103 104 106 108 107 107 109 111 111 109 106 104 103 101 101 100 99 97 93 88 85 86 86
55 54 52 49 48 48 50 52 54 56 58 61 63 64 65 67 68 69 69 69 69 69 67 65 63 60 58 57 57 57 58 58 58 58 58 59 60 62 63 64 65 67 68 69 71 73 74 75 76 76 77 79 80 81 83 85 87 90 94 97 99 99 98 97 96 97 99 103 105 105 106 107 107 105 102 100 99 96 94 91 88 84 80 76 74 73 72
53 50 48 48 49 50 52 54 56 58 60 62 64 65 65 65 65 65 66 67 65 63 60 57 55 54 53 53 53 54 54 54 53 52 53 53 55 56 57 58 58 58 60 61 63 64 64 64 63 63 64 64 65 66 68 69 71 74 78 81 85 86 87 87 86 85 84 85 88 90 91 92 92 91 90 89 88 87 84 80 76 72 68 64 61 59 57
49 47 48 49 52 54 56 57 58 60 62 63 63 62 61 61 62 62 62 60 56 52 50 49 49 49 49 49 49 48 48 47 46 44 45 45 46 48 50 51 52 52 53 54 56 56 56 57 56 55 55 54 53 54 55 56 57 58 60 63 66 68 69 69 69 69 68 68 68 70 72 74 75 75 75 75 75 74 71 68 65 60 56 52 49 48 48
47 48 50 52 55 57 60 61 62 64 65 63 61 59 59 61 61 59 55 51 46 44 44 45 45 45 45 45 44 43 43 43 42 41 40 40 40 41 43 44 45 46 47 48 49 50 50 50 49 48 47 46 46 46 47 47 47 48 49 50 51 52 53 53 53 54 55 55 55 57 58 59 61 61 61 61 61 60 59 57 54 49 44 43 43 45 45
49 51 53 55 58 60 62 64 65 66 65 63 61 61 60 59 56 50 43 39 39 40 41 41 41 42 42 42 41 41 41 41 41 40 39 38 38 38 38 38 39 40 41 41 42 43 43 42 41 40 39 39 40 41 41 41 41 41 42 43 43 43 43 44 44 46 47 47 47 49 50 52 52 52 52 52 52 51 48 46 44 41 40 42 44 45 45
53 55 57 59 61 63 63 64 65 65 64 63 62 59 54 47 41 36 33 33 36 38 38 38 38 38 38 38 37 37 37 37 37 37 37 37 36 36 36 36 36 36 36 36 37 38 38 36 34 34 33 33 34 36 37 37 37 37 38 38 39 40 40 40 41 42 42 42 43 43 44 45 46 46 46 46 45 42 39 38 39 40 42 44 45 44 45
58 60 62 63 63 63 63 63 64 64 64 61 55 49 41 34 30 28 30 32 34 34 34 35 36 36 36 35 35 35 36 35 34 33 32 32 33 33 33 33 33 33 32 31 32 34 34 33 31 30 29 29 30 32 33 34 34 35 35 36 37 38 38 38 38 38 39 39 40 39 40 41 43 43 43 42 40 39 39 40 41 42 43 44 45 45 45
62 63 63 62 62 62 63 62 63 64 61 53 43 35 30 26 25 26 29 31 31 32 35 37 37 35 35 35 35 35 35 33 31 29 28 27 28 28 29 28 28 27 27 28 28 29 30 30 30 29 29 29 30 31 32 33 34 34 34 34 35 35 34 34 35 36 37 38 38 38 38 39 39 40 40 39 38 39 40 40 40 40 40 42 46 47 46
64 63 61 61 61 62 61 61 61 58 52 42 33 26 23 21 23 25 27 28 30 34 39 41 40 37 35 35 35 34 32 30 28 26 24 23 23 23 23 23 23 23 23 23 24 25 26 27 28 29 29 29 30 31 31 32 33 33 32 32 32 32 32 33 34 35 36 36 36 35 34 34 36 38 39 38 37 37 37 37 37 38 39 41 44 45 44
63 62 61 61 61 60 60 58 54 46 38 31 25 21 19 20 21 22 23 27 31 36 40 42 40 38 36 35 35 33 31 28 27 25 23 21 20 19 18 18 19 19 19 20 21 22 23 24 26 27 28 29 30 30 31 31 32 32 32 31 31 32 32 33 33 33 32 31 31 30 30 32 35 36 36 35 34 34 34 35 36 37 39 40 41 40 38
61 61 60 59 59 58 56 50 41 32 25 21 19 17 17 18 17 19 22 27 31 34 37 37 37 35 35 34 33 32 30 29 27 26 23 20 18 16 15 15 15 16 16 17 19 20 22 23 24 25 26 27 28 29 29 29 29 30 30 30 30 30 30 29 28 26 25 24 25 27 29 30 31 31 31 31 31 32 33 36 37 38 38 38 36 34 32
58 58 57 56 55 52 45 36 27 19 15 15 15 15 14 13 14 18 22 26 28 30 30 30 30 31 31 30 30 29 29 28 28 26 24 22 20 18 17 15 14 13 13 13 14 16 18 20 21 23 24 24 25 25 25 25 26 26 27 26 26 25 24 22 21 20 21 22 23 25 25 26 25 26 27 29 30 32 33 36 38 38 36 33 31 29 29
54 55 54 52 48 40 31 22 16 12 11 11 13 12 11 11 13 18 21 22 22 23 22 22 24 26 26 26 27 28 27 26 25 23 22 20 19 18 17 16 15 14 13 13 13 14 15 16 17 18 18 19 19 20 20 20 21 21 20 20 20 19 18 18 18 19 20 21 22 23 24 24 24 25 27 28 30 30 31 31 32 32 30 28 26 26 26
52 52 49 43 35 26 17 12 10 9 9 10 11 11 10 11 15 18 18 17 16 16 17 20 22 23 23 25 26 27 27 27 26 25 23 21 18 16 14 13 12 12 13 13 14 14 15 15 16 15 15 15 15 15 15 16 16 17 16 16 17 17 18 19 20 20 21 22 23 24 24 23 23 25 27 28 28 27 26 25 25 25 25 24 24 25 26
48 44 37 29 20 13 9 8 8 8 8 10 13 12 10 13 16 15 14 13 13 14 16 19 20 21 22 24 24 25 25 25 24 24 24 22 20 18 14 11 9 8 7 7 8 9 10 11 12 13 13 13 13 14 14 15 15 16 16 17 17 18 18 19 20 21 22 22 22 22 21 22 23 26 27 26 25 24 23 23 23 22 22 22 23 25 26
37 30 21 14 9 7 7 7 7 8 11 14 13 11 11 13 13 11 10 11 11 12 14 16 18 20 21 22 22 23 23 22 21 21 20 20 19 18 16 13 12 11 12 12 11 9 6 4 2 2 3 4 5 7 9 10 10 10 11 11 11 12 12 13 14 16 17 18 18 19 21 22 23 24 23 22 21 21 21 20 20 20 20 22 24 25 27
20 13 9 7 6 7 8 8 10 13 15 14 10 10 11 10 8 8 9 10 11 11 13 15 17 19 20 21 22 23 24 23 23 23 23 23 24 24 23 22 22 22 23 24 23 21 19 17 15 13 12 10 9 8 6 4 3 3 2 1 0 2 4 6 9 12 14 16 18 20 20 20 20 20 20 20 19 19 18 18 18 19 21 23 24 25 27
8 6 6 6 7 9 11 13 14 14 12 9 9 10 9 7 5 6 8 10 11 12 13 14 16 17 19 20 22 24 25 26 26 27 27 28 29 29 29 30 30 30 30 29 28 27 26 25 23 22 21 20 19 18 16 14 12 11 10 8 7 6 7 9 11 14 16 18 18 19 19 19 19 18 18 17 17 17 17 18 19 20 22 23 25 26 28
4 5 6 7 10 14 16 16 14 11 9 8 9 9 7 4 4 5 7 9 11 12 14 14 14 15 16 18 19 21 23 24 25 26 27 28 29 29 30 30 30 29 29 28 27 26 25 24 23 22 22 21 21 20 18 17 16 15 15 14 14 14 14 15 15 15 16 16 16 17 17 16 16 16 16 15 16 16 17 19 20 22 24 25 26 27 28
4 6 8 12 15 17 17 14 10 8 8 8 8 6 4 3 3 5 7 9 11 12 13 14 14 14 15 15 16 17 19 20 21 22 23 24 25 25 26 26 26 26 26 25 24 23 23 21 20 20 19 19 18 17 16 16 15 15 14 14 13 13 13 13 13 12 12 12 12 13 13 13 13 13 14 15 16 17 19 21 22 24 25 26 27 28 30
5 8 13 16 18 16 13 10 8 7 7 6 5 3 2 1 2 5 8 10 11 12 12 13 14 14 14 14 14 15 16 17 18 19 20 21 21 21 21 21 21 21 21 20 20 20 19 18 18 17 16 15 15 14 13 12 11 11 11 10 10 10 9 9 9 9 9 9 9 10 10 11 12 13 15 16 18 19 21 23 24 25 27 28 29 31 32
Wind_Direction
277 278 278 278 276 274 272 271 270 270 270 271 272 273 276 278 277 277 281 281 279 281 283 283 281 279 277 275 272 270 270 270 269 266 261 260 264 266 267 268 259 250 248 251 254 258 265 269 268 265 262 261 262 263 265 267 268 271 275 277 277 276 276 277 276 274 273 272 270 269 268 268 267 265 264 266 270 273 274 273 272 273 274 275 277 278 278
275 276 277 277 276 275 273 272 272 272 272 272 272 273 274 274 274 276 280 281 282 284 285 284 284 283 281 279 277 274 270 266 263 258 257 261 263 261 261 260 253 250 252 254 254 256 262 267 268 267 266 264 264 265 266 268 268 271 275 276 276 276 276 275 271 269 269 268 266 265 265 265 264 264 265 268 271 273 274 273 273 273 273 275 277 278 279
270 270 271 271 272 273 273 273 272 272 272 272 272 273 275 275 275 277 279 280 281 282 282 282 282 283 282 279 277 273 266 260 256 255 259 262 260 257 256 256 256 258 260 261 261 260 260 263 266 268 268 269 269 269 269 269 270 272 274 275 275 276 276 273 269 265 264 263 261 261 262 263 264 266 268 271 273 274 274 274 273 273 273 274 276 278 279
268 268 268 268 269 270 270 268 268 268 268 270 271 273 274 276 278 278 278 279 281 281 280 279 278 278 276 273 270 267 261 256 257 259 260 261 261 259 256 255 258 260 261 261 261 259 258 260 264 266 268 269 270 270 270 271 272 273 273 274 275 274 270 267 264 261 259 258 259 259 261 264 267 270 271 273 273 274 274 273 272 272 272 274 276 278 278
269 268 268 268 269 270 270 268 268 268 269 270 271 272 273 276 280 280 279 279 279 277 276 275 274 273 271 269 266 263 260 260 262 264 265 265 265 262 259 257 259 261 262 262 261 259 258 259 263 267 269 270 270 270 271 272 273 272 272 272 273 271 266 262 259 256 255 256 257 259 263 268 271 273 274 274 273 273 273 272 272 272 273 274 276 277 278
270 269 268 268 269 270 271 271 271 271 271 272 273 274 275 277 276 274 273 273 272 272 273 274 273 272 271 270 268 266 265 264 265 267 268 267 266 266 265 265 265 265 265 265 264 261 259 262 266 269 270 270 269 270 270 270 270 269 269 269 268 265 263 260 257 255 256 257 260 263 268 272 274 274 275 274 274 273 273 273 273 273 273 273 275 276 277
269 268 267 268 268 269 270 272 272 271 270 270 271 272 272 272 270 268 268 270 271 273 274 274 273 272 271 270 269 268 266 264 263 264 265 265 265 266 267 267 266 265 264 263 262 260 260 264 267 268 267 267 267 267 267 266 266 266 266 264 262 260 258 256 255 256 258 261 265 269 273 275 276 276 276 276 275 274 273 273 273 273 273 273 275 275 275
269 269 267 267 267 268 269 269 269 268 268 268 269 269 268 268 269 268 269 270 273 274 274 273 273 272 269 267 267 265 264 263 262 261 263 263 262 261 262 262 262 261 261 261 261 261 262 264 266 266 264 263 263 263 264 264 264 262 261 259 257 256 255 254 255 257 260 264 268 271 273 275 277 278 278 276 274 274 273 274 274 273 273 274 274 273 273
269 269 269 269 270 270 268 266 266 267 268 269 269 270 270 271 270 269 268 269 271 272 272 271 271 269 267 265 264 262 261 260 260 260 261 262 262 262 261 260 259 259 260 261 262 262 264 265 265 265 263 261 260 259 259 260 261 259 258 257 255 254 255 256 257 259 261 264 267 270 272 276 278 278 278 276 275 275 275 275 274 273 273 274 273 271 272
268 269 270 271 272 272 270 267 266 266 267 268 269 270 270 269 268 268 268 267 267 266 265 267 269 268 266 264 262 261 259 259 259 260 261 264 265 265 263 261 260 260 260 261 261 261 262 263 264 263 261 259 258 257 256 258 260 260 260 260 259 258 260 262 263 264 264 265 266 270 273 275 276 276 276 276 275 276 276 276 276 275 275 275 273 270 272
269 268 267 265 263 261 262 264 264 265 265 265 265 264 261 259 259 261 262 262 262 261 261 264 268 269 267 265 263 261 259 260 260 261 262 265 266 265 263 262 262 261 260 260 260 261 261 261 262 261 260 259 258 257 258 259 262 262 262 262 262 262 264 265 266 267 268 266 267 270 273 273 273 274 274 275 275 276 276 277 277 278 278 277 273 271 272
269 268 266 263 259 255 255 259 261 262 262 262 260 255 252 253 258 262 264 265 266 266 266 268 270 272 272 270 267 263 260 261 262 263 265 267 267 265 263 262 262 261 259 258 260 261 261 261 261 261 261 261 260 259 259 260 262 263 263 262 261 261 262 264 266 268 268 267 267 270 271 271 272 273 273 274 275 275 275 276 277 278 279 277 274 271 271
269 267 265 263 260 258 257 259 260 260 259 258 257 255 254 255 260 265 268 269 270 270 271 271 271 271 270 269 267 264 262 262 263 265 267 268 267 266 265 263 263 261 259 259 261 260 259 260 261 261 261 260 260 260 260 261 262 262 262 261 260 260 262 264 266 266 266 266 268 269 270 270 272 273 273 273 274 274 274 274 275 276 275 275 272 270 269
269 266 264 263 262 260 260 260 260 260 258 256 255 255 256 257 258 262 266 268 268 267 267 266 266 265 264 263 262 262 262 264 266 267 268 267 266 266 266 265 263 260 259 261 262 260 259 258 258 258 259 259 259 259 260 261 262 262 262 262 262 263 264 265 265 264 264 265 267 267 268 269 271 272 271 271 271 272 273 274 274 274 273 272 271 271 271
270 267 265 264 263 262 262 261 260 259 259 257 256 256 256 257 258 259 260 260 261 262 261 260 259 259 259 259 260 261 262 264 265 265 265 264 263 264 264 264 263 261 261 261 261 260 260 257 255 255 256 257 258 259 261 261 262 262 263 263 264 265 265 265 264 263 262 263 264 264 266 268 269 269 269 269 270 272 273 273 273 273 272 271 272 273 273
272 270 268 267 267 266 265 264 263 261 259 259 258 258 258 258 259 260 260 259 259 259 260 259 259 259 259 258 258 258 258 258 258 258 257 257 258 258 259 261 263 263 262 260 259 258 258 256 253 252 253 255 256 257 258 259 260 260 260 262 264 265 265 265 264 263 263 263 262 262 263 264 265 267 268 269 270 272 273 274 274 275 275 275 274 274 273
272 272 272 272 272 270 268 266 266 264 263 261 261 260 260 260 260 260 260 259 259 258 259 259 258 258 256 255 254 253 252 251 250 251 251 250 250 251 254 258 261 263 262 260 260 258 256 255 254 253 253 255 255 255 255 256 256 257 258 258 260 260 262 263 264 264 264 263 261 259 260 262 264 265 267 268 269 271 273 273 274 276 278 279 279 277 275
272 272 274 275 273 271 270 269 268 268 266 265 264 263 262 261 261 261 261 261 260 259 259 258 257 254 253 252 252 251 250 249 248 248 248 247 246 247 248 250 254 257 258 260 262 262 259 257 256 255 255 256 255 254 252 252 252 254 256 256 257 258 259 261 262 263 262 259 257 257 258 261 263 264 265 266 268 270 271 271 273 275 277 279 279 278 277
274 273 272 272 272 272 271 270 270 270 268 267 265 263 261 260 260 261 261 261 261 261 261 260 258 254 252 252 252 251 250 251 251 252 253 252 249 248 246 245 246 248 250 254 258 259 259 259 258 257 256 256 256 253 251 249 250 251 253 254 255 257 257 259 260 261 259 256 255 256 258 260 262 263 264 265 266 267 268 268 270 271 273 274 275 276 277
275 274 271 269 269 270 269 269 270 271 270 269 267 265 264 262 261 261 260 260 260 261 261 261 260 257 255 254 253 252 251 252 254 256 258 259 257 254 250 246 245 246 248 250 251 250 251 254 256 256 256 257 257 254 251 249 249 250 251 253 254 254 256 258 261 261 257 254 254 256 257 259 260 261 262 263 263 264 264 265 266 267 269 272 274 275 276
277 276 276 275 273 271 269 269 270 271 270 270 269 268 267 266 265 264 263 262 261 262 261 261 261 260 259 257 256 256 255 255 256 258 259 260 260 258 256 254 253 252 251 250 248 246 247 249 251 253 254 256 257 254 250 249 249 249 251 253 253 253 255 257 259 259 257 255 255 256 258 259 258 257 257 259 260 261 262 263 264 266 268 270 270 270 270
283 283 285 285 282 276 272 271 273 273 272 272 271 271 270 270 269 267 266 265 264 264 264 263 262 262 261 259 258 258 258 258 259 260 261 261 261 259 258 258 258 257 254 249 245 244 245 246 247 249 252 255 257 255 250 248 248 249 250 251 252 252 253 255 256 256 255 254 255 256 258 259 258 256 254 255 257 259 260 260 261 263 265 267 268 268 269
291 291 294 295 291 287 284 283 282 281 279 277 276 276 275 274 273 272 270 269 267 266 266 266 266 265 264 261 260 259 260 260 261 261 262 263 262 261 259 257 257 257 253 249 245 244 243 243 245 247 249 252 254 254 252 249 247 247 247 248 249 250 251 252 254 254 254 253 254 256 257 258 258 256 255 255 255 256 256 256 257 259 261 263 266 268 270
295 296 298 299 298 296 296 294 292 290 288 286 284 282 281 279 278 276 275 274 272 271 270 269 269 268 267 265 264 263 263 262 263 263 262 262 262 261 259 257 256 254 251 249 248 247 245 244 244 245 247 248 249 250 250 250 248 247 246 247 247 248 249 250 251 253 253 252 253 254 254 255 256 256 257 257 256 256 255 255 256 257 259 261 263 265 268
295 297 299 300 299 299 299 297 295 293 292 291 289 287 286 284 283 281 280 278 277 276 275 273 272 272 271 269 268 268 267 266 265 265 264 263 261 260 259 258 256 254 251 250 250 251 251 250 247 245 246 247 248 249 248 248 249 248 246 246 246 247 248 249 250 251 252 252 251 251 251 252 251 251 252 253 254 255 255 255 255 257 258 260 261 263 265
296 298 300 300 300 300 299 297 295 294 293 292 291 290 289 287 286 284 283 282 281 280 279 277 276 276 275 274 272 271 270 269 267 267 266 264 262 260 259 258 258 257 254 253 252 253 254 255 253 250 247 247 252 254 252 249 248 247 246 246 246 246 247 248 249 250 250 251 250 250 249 249 249 249 249 251 252 253 254 255 256 256 257 258 260 263 266
295 298 299 298 298 298 297 295 294 294 293 292 291 291 290 289 288 287 286 285 284 283 282 282 281 280 279 279 278 276 274 272 271 269 268 267 265 263 260 260 260 260 259 258 257 257 257 258 257 255 252 251 255 259 259 256 251 248 246 247 247 247 247 247 248 249 250 251 251 251 250 250 250 251 253 255 256 256 256 257 258 258 257 259 262 267 272
294 296 297 297 296 296 294 293 293 293 293 292 291 291 291 290 289 288 288 287 286 286 285 285 285 284 282 281 280 280 279 277 275 274 272 270 269 267 264 262 261 261 261 261 261 261 261 262 261 261 260 260 261 262 264 263 257 251 248 248 249 249 248 249 249 249 250 250 252 254 254 254 253 253 254 256 258 260 261 262 261 260 259 261 265 271 275
293 294 295 296 295 294 293 292 293 293 293 292 292 292 292 291 290 290 289 289 289 289 288 288 287 286 285 284 283 282 281 279 278 276 274 273 271 269 268 265 263 262 262 262 262 262 262 263 264 264 264 265 266 266 266 266 261 254 250 251 252 252 252 253 254 255 254 252 252 255 258 259 258 257 257 257 259 262 264 265 266 266 265 266 269 272 275
292 294 296 295 293 292 292 292 292 292 292 292 293 293 293 292 292 292 292 292 292 291 290 290 290 290 289 288 287 286 284 283 280 278 276 274 272 271 269 267 265 263 263 263 262 262 262 262 262 263 263 264 265 265 265 265 262 256 252 252 254 256 257 258 259 260 260 258 256 256 259 261 263 263 263 263 263 265 266 269 272 274 275 274 273 272 273
292 295 295 293 291 291 291 291 291 291 292 293 294 294 294 294 293 293 293 293 293 292 292 291 292 292 291 291 289 288 287 285 283 280 278 276 274 272 271 269 267 265 264 263 263 263 263 262 262 262 262 262 262 263 263 262 262 259 256 255 257 260 263 264 264 265 266 265 264 262 262 263 265 267 268 269 269 270 271 273 275 277 278 276 273 271 270
293 294 292 289 288 289 291 292 292 293 294 295 295 295 295 294 293 292 292 291 291 292 292 292 292 292 291 290 289 287 286 284 283 281 280 278 276 274 272 270 269 267 265 264 264 264 264 264 263 263 263 263 263 263 263 262 262 261 261 261 262 264 266 268 268 268 267 267 267 266 265 265 266 268 270 271 272 273 274 275 275 275 274 271 269 268 267
292 290 287 286 286 288 289 290 292 294 294 294 295 295 295 294 293 292 292 292 292 293 293 294 294 293 292 291 290 288 287 286 285 284 282 281 279 277 275 273 270 267 265 264 264 264 264 264 264 263 263 263 263 264 264 264 263 263 262 262 263 264 265 266 266 267 266 265 265 265 265 265 266 268 269 270 271 272 273 273 272 271 269 268 267 266 266
288 286 286 287 288 290 290 291 292 294 295 296 296 296 296 295 295 295 295 295 296 296 297 297 296 295 294 293 292 290 289 288 287 286 285 283 281 280 278 276 273 270 267 264 263 263 263 263 262 261 260 260 260 260 260 260 260 260 260 259 260 260 261 261 262 263 263 263 263 263 263 264 265 266 267 267 268 269 268 267 266 265 264 264 263 263 265
287 288 289 290 292 293 294 295 296 298 299 299 298 298 297 297 297 297 298 298 299 300 300 300 300 299 298 297 295 294 293 292 291 288 286 284 283 281 280 278 276 273 271 268 265 263 261 260 258 257 255 254 253 252 252 253 253 253 253 254 254 255 255 256 257 258 259 260 260 261 262 262 262 263 263 263 263 263 262 261 260 257 256 257 258 259 261
290 291 292 293 295 296 298 299 299 300 301 300 300 300 299 299 299 299 299 301 303 304 305 305 304 303 303 303 301 300 297 294 292 289 286 284 283 281 280 278 276 275 273 270 267 264 261 258 255 253 251 249 247 246 246 247 248 248 248 248 249 250 251 252 253 255 256 256 257 258 259 259 259 259 259 258 258 258 257 257 254 250 251 255 257 256 256
293 294 295 297 298 299 299 300 300 300 301 302 302 302 301 300 300 301 304 308 309 309 309 310 312 313 313 312 309 307 304 300 296 293 290 287 284 281 279 278 276 275 273 270 266 264 261 258 254 251 249 246 245 245 245 245 246 246 247 246 246 247 248 250 252 255 256 257 258 259 259 259 259 257 256 255 254 252 250 248 247 248 253 257 256 252 250
296 297 298 299 299 299 299 299 299 301 303 303 303 302 302 301 303 308 313 314 313 313 316 320 322 321 319 317 314 312 310 308 305 302 299 294 289 285 282 280 278 276 273 269 265 263 260 256 252 249 248 248 247 247 246 246 246 246 247 247 248 248 250 253 255 257 259 261 262 262 262 260 257 254 252 251 249 246 244 246 249 252 254 253 249 247 247
297 298 298 298 298 298 298 299 300 302 304 304 303 302 301 304 311 317 318 315 315 319 325 328 328 325 321 319 317 316 315 315 314 312 309 305 299 294 288 285 282 278 274 269 265 261 257 253 249 247 247 248 248 247 246 245 245 246 247 249 251 253 255 257 259 259 260 262 262 263 261 258 254 249 247 246 246 245 246 249 251 251 249 245 243 244 247
296 296 296 296 296 297 297 299 300 302 303 302 301 300 303 311 318 318 315 316 321 326 329 330 330 329 326 324 323 324 324 324 324 323 319 314 310 304 297 291 285 279 274 269 265 260 256 252 249 247 247 246 246 246 247 247 246 247 250 253 255 257 258 260 261 261 261 260 259 258 255 251 247 244 242 243 245 246 247 247 247 245 244 244 245 245 246
295 295 295 295 296 297 298 300 300 300 300 300 298 299 307 316 317 314 315 321 327 328 328 328 329 331 331 330 331 331 331 330 330 329 326 322 318 314 307 298 290 280 272 265 261 257 254 250 247 245 245 245 245 246 248 250 250 251 254 256 257 258 260 261 261 260 257 254 252 250 246 244 243 242 242 243 243 243 244 244 244 243 243 244 244 242 239
293 294 294 295 296 298 299 299 298 297 295 293 293 298 307 310 309 311 320 327 329 329 328 328 330 332 334 334 335 335 334 333 331 330 328 324 322 318 313 306 299 289 279 269 262 256 252 249 247 245 245 245 245 247 249 251 253 254 256 257 257 258 258 257 255 252 249 246 245 243 241 241 241 242 243 242 240 239 240 243 244 242 240 238 235 229 224
293 293 294 296 298 299 298 295 293 289 284 284 290 297 298 294 299 314 324 328 328 329 330 331 333 334 336 337 337 338 337 335 333 330 327 324 322 320 316 312 306 300 292 282 273 265 259 254 250 248 247 246 247 249 251 253 254 255 255 254 253 251 250 249 248 247 246 243 241 239 238 239 240 241 241 240 237 237 241 243 241 236 229 223 219 215 214
293 294 296 297 298 296 293 288 281 272 270 281 289 284 271 273 296 314 322 326 331 336 338 337 337 338 342 345 347 346 345 345 345 344 340 336 330 325 321 317 311 305 299 292 286 279 273 267 262 258 256 256 256 255 254 253 253 253 251 249 248 247 248 249 250 249 246 243 239 237 237 238 239 238 236 235 236 238 240 239 232 223 214 208 207 210 215
295 296 297 296 294 289 281 268 256 257 270 278 268 247 244 273 300 311 318 327 338 344 344 340 340 344 350 354 355 353 353 355 359 2 1 359 355 348 339 329 319 309 301 294 289 283 278 274 271 269 267 265 262 258 256 255 254 253 253 251 251 253 254 254 253 250 246 241 238 235 234 234 233 231 230 231 232 231 226 219 212 206 202 202 206 213 219
295 295 294 291 284 273 254 240 244 256 257 243 229 226 251 286 300 308 320 333 340 343 343 344 348 354 359 1 2 1 359 1 5 8 10 12 14 14 10 2 350 340 331 322 313 300 286 277 270 267 264 262 259 257 256 256 255 255 254 252 252 252 250 247 242 238 234 230 228 226 225 225 226 226 226 225 221 214 204 196 193 194 198 204 211 217 222
294 291 285 275 257 237 226 229 238 232 219 213 217 237 270 287 297 311 328 335 339 345 351 357 3 7 8 11 13 12 11 13 18 21 23 26 30 33 33 35 40 47 52 53 49 43 35 24 355 308 285 275 267 262 258 255 253 252 251 247 243 240 236 230 225 220 217 216 216 217 218 218 217 215 211 204 195 188 183 182 187 194 202 210 217 222 226
286 275 257 237 221 212 210 213 211 207 205 211 229 256 271 281 301 326 334 335 340 350 358 5 9 13 16 19 23 25 26 28 30 33 35 38 40 42 44 46 50 54 56 56 55 54 54 54 53 52 51 50 48 44 38 34 30 27 27 41 179 205 211 212 211 208 204 203 202 200 198 195 190 184 178 173 170 170 174 182 192 201 210 217 223 228 232
263 230 215 214 204 190 187 192 197 200 206 222 246 258 263 276 308 330 333 336 343 350 357 3 9 13 16 20 25 30 33 35 37 39 41 42 42 43 44 45 47 50 52 53 53 53 52 52 52 52 54 55 56 57 59 63 67 72 79 88 101 123 147 163 172 176 175 172 169 167 165 162 160 159 159 161 165 172 182 193 204 212 219 225 230 234 237
224 198 195 192 180 175 178 186 194 202 216 235 245 248 254 270 299 317 329 339 344 349 354 359 4 11 15 20 24 29 33 36 39 42 44 45 45 45 45 45 47 48 50 52 53 54 55 56 58 60 63 66 67 68 70 75 80 88 96 104 114 123 132 139 144 147 149 148 148 148 149 151 153 156 161 167 177 188 199 208 216 222 227 231 235 238 241
203 186 177 170 168 173 181 190 199 210 223 230 232 235 244 271 303 327 342 347 347 349 352 355 359 5 13 18 24 29 34 37 40 42 45 47 49 49 48 48 49 49 49 51 52 53 54 56 58 62 67 72 77 80 82 85 88 93 98 103 109 114 120 124 127 131 135 139 143 146 150 155 161 168 177 187 197 206 214 220 226 230 233 237 240 244 247
181 170 166 166 169 177 188 196 203 208 211 209 207 208 222 283 336 349 352 352 350 349 351 355 359 4 10 16 23 29 33 36 38 40 41 43 45 47 49 50 50 50 50 50 49 50 51 51 51 52 55 59 64 69 74 79 84 89 94 99 104 109 113 117 123 130 136 143 151 159 167 175 184 192 200 207 214 220 225 229 233 237 241 245 248 252 256
Height
5590 5593 5595 5599 5599 5594 5595 5595 5595 5598 5600 5599 5595 5589 5590 5592 5578 5565 5575 5581 5572 5573 5583 5587 5592 5597 5597 5598 5600 5600 5600 5599 5598 5600 5599 5596 5594 5592 5588 5586 5585 5584 5583 5582 5582 5581 5580 5580 5579 5579 5580 5582 5583 5585 5587 5588 5587 5586 5584 5583 5583 5583 5583 5584 5584 5583 5582 5581 5581 5580 5579 5579 5579 5579 5579 5579 5578 5578 5577 5576 5574 5573 5572 5571 5570 5569 5568
5580 5583 5584 5585 5585 5582 5582 5583 5584 5585 5586 5585 5583 5580 5582 5581 5570 5564 5569 5566 5561 5567 5573 5574 5577 5581 5582 5582 5583 5584 5586 5587 5588 5587 5582 5578 5576 5574 5571 5572 5572 5572 5572 5573 5574 5573 5572 5570 5570 5569 5571 5573 5574 5574 5576 5577 5577 5576 5574 5573 5574 5574 5574 5575 5575 5573 5572 5572 5571 5571 5571 5571 5570 5570 5570 5569 5569 5568 5567 5565 5564 5563 5562 5561 5561 5560 5558
5569 5575 5576 5574 5574 5572 5571 5571 5573 5574 5573 5573 5571 5570 5572 5570 5562 5561 5562 5553 5549 5559 5566 5565 5566 5568 5569 5569 5570 5572 5574 5574 5571 5566 5560 5558 5560 5560 5562 5564 5566 5566 5567 5567 5567 5566 5564 5562 5561 5561 5562 5563 5564 5564 5565 5566 5566 5566 5564 5564 5564 5564 5565 5566 5564 5563 5563 5562 5562 5562 5563 5563 5562 5562 5561 5560 5559 5558 5557 5555 5554 5553 5552 5552 5551 5550 5548
5557 5566 5568 5565 5566 5563 5557 5558 5562 5566 5564 5561 5560 5562 5563 5560 5554 5552 5550 5543 5541 5549 5552 5551 5553 5556 5557 5558 5558 5557 5555 5554 5552 5547 5546 5547 5549 5552 5555 5558 5559 5559 5558 5557 5556 5555 5554 5552 5551 5551 5551 5552 5553 5553 5553 5554 5555 5555 5555 5555 5555 5555 5556 5555 5553 5553 5552 5551 5552 5553 5554 5554 5554 5553 5552 5551 5550 5548 5547 5545 5544 5543 5543 5542 5541 5540 5539
5546 5556 5558 5555 5555 5547 5540 5547 5556 5557 5554 5551 5550 5551 5552 5553 5550 5542 5537 5534 5531 5529 5529 5532 5538 5543 5546 5547 5543 5538 5538 5540 5540 5537 5536 5537 5538 5540 5543 5547 5549 5549 5548 5547 5546 5544 5544 5541 5540 5540 5539 5540 5542 5542 5542 5543 5544 5545 5545 5546 5547 5547 5547 5546 5545 5544 5542 5541 5542 5543 5544 5544 5544 5543 5543 5542 5541 5539 5537 5536 5535 5534 5533 5533 5531 5530 5529
5534 5544 5549 5544 5539 5531 5530 5542 5548 5543 5543 5543 5540 5540 5545 5545 5539 5529 5522 5518 5514 5510 5513 5518 5524 5531 5537 5535 5526 5524 5528 5531 5529 5527 5526 5527 5528 5529 5531 5533 5536 5537 5537 5538 5537 5536 5533 5531 5529 5529 5527 5528 5530 5531 5532 5533 5533 5534 5535 5536 5537 5538 5537 5537 5536 5534 5532 5532 5532 5533 5533 5533 5533 5533 5533 5532 5531 5530 5528 5527 5526 5525 5524 5523 5521 5520 5519
5524 5532 5539 5527 5518 5522 5530 5535 5535 5532 5533 5532 5528 5532 5536 5527 5517 5515 5513 5506 5500 5500 5503 5506 5510 5518 5525 5521 5512 5513 5516 5514 5513 5515 5517 5518 5518 5518 5519 5521 5523 5524 5524 5525 5525 5524 5522 5520 5519 5518 5515 5515 5517 5520 5521 5521 5521 5522 5524 5525 5527 5527 5526 5526 5525 5523 5522 5522 5522 5522 5522 5522 5522 5523 5523 5522 5522 5521 5520 5518 5517 5516 5515 5514 5512 5511 5509
5518 5522 5523 5510 5506 5519 5525 5521 5519 5521 5521 5520 5519 5522 5521 5510 5503 5505 5503 5494 5491 5491 5492 5495 5499 5505 5510 5507 5502 5502 5503 5499 5499 5502 5505 5506 5507 5508 5509 5510 5511 5512 5512 5512 5512 5512 5512 5510 5509 5507 5505 5504 5506 5509 5510 5509 5509 5511 5513 5513 5515 5515 5515 5515 5514 5513 5513 5512 5512 5513 5512 5512 5513 5513 5513 5513 5513 5512 5510 5509 5508 5508 5506 5505 5504 5502 5500
5511 5511 5508 5501 5502 5510 5509 5505 5507 5509 5509 5510 5510 5509 5505 5498 5493 5491 5487 5484 5485 5484 5483 5485 5487 5491 5496 5495 5491 5491 5490 5488 5488 5489 5492 5494 5496 5498 5499 5499 5500 5501 5500 5500 5500 5500 5500 5499 5497 5496 5495 5493 5495 5498 5499 5498 5498 5499 5501 5502 5504 5504 5505 5505 5504 5503 5503 5503 5503 5503 5503 5503 5503 5504 5504 5504 5504 5502 5501 5500 5500 5498 5497 5496 5495 5493 5492
5502 5502 5498 5496 5497 5495 5491 5492 5495 5497 5498 5499 5498 5495 5491 5485 5479 5475 5474 5474 5473 5474 5474 5473 5473 5476 5481 5482 5481 5480 5478 5477 5478 5479 5481 5483 5485 5487 5488 5489 5489 5489 5489 5489 5488 5487 5487 5487 5486 5485 5484 5483 5484 5486 5488 5487 5487 5489 5491 5492 5494 5495 5495 5495 5494 5493 5493 5493 5493 5494 5494 5494 5494 5495 5495 5495 5494 5493 5492 5491 5490 5489 5488 5487 5486 5485 5483
5491 5491 5487 5488 5489 5483 5478 5479 5482 5486 5487 5487 5486 5483 5476 5470 5466 5463 5462 5461 5459 5461 5462 5462 5462 5462 5464 5468 5471 5470 5467 5467 5468 5469 5470 5473 5475 5476 5477 5477 5478 5479 5479 5478 5477 5476 5476 5476 5476 5474 5473 5473 5474 5476 5478 5479 5479 5481 5482 5483 5484 5485 5485 5484 5484 5483 5482 5483 5483 5484 5484 5484 5485 5486 5486 5485 5484 5483 5482 5482 5481 5480 5479 5478 5477 5476 5475
5478 5478 5472 5473 5475 5471 5466 5467 5472 5477 5477 5476 5473 5467 5460 5458 5455 5451 5451 5450 5447 5447 5449 5450 5451 5449 5448 5452 5458 5458 5456 5456 5457 5457 5459 5461 5463 5464 5465 5465 5465 5467 5468 5468 5467 5467 5466 5465 5465 5464 5463 5463 5464 5466 5469 5471 5470 5470 5470 5471 5471 5472 5473 5473 5472 5472 5472 5472 5473 5473 5473 5473 5474 5475 5476 5475 5474 5473 5472 5472 5472 5471 5470 5469 5468 5467 5466
5466 5463 5457 5456 5458 5456 5455 5456 5460 5464 5466 5467 5460 5449 5445 5449 5446 5441 5441 5440 5436 5435 5437 5437 5438 5437 5435 5436 5440 5443 5443 5444 5445 5446 5446 5448 5451 5452 5454 5454 5453 5454 5455 5457 5457 5457 5456 5455 5455 5454 5453 5454 5455 5456 5459 5460 5458 5457 5457 5458 5458 5459 5461 5462 5462 5461 5461 5461 5462 5463 5463 5462 5463 5464 5464 5464 5463 5462 5462 5462 5462 5462 5462 5461 5460 5458 5457
5451 5448 5443 5440 5440 5443 5446 5446 5447 5450 5451 5451 5446 5436 5434 5437 5435 5432 5431 5429 5425 5425 5425 5425 5425 5426 5425 5424 5425 5428 5429 5429 5432 5434 5433 5435 5437 5439 5440 5442 5441 5441 5443 5445 5446 5446 5446 5445 5444 5444 5443 5444 5445 5445 5447 5447 5446 5446 5446 5446 5447 5449 5450 5451 5451 5451 5451 5452 5452 5452 5452 5452 5452 5452 5452 5452 5452 5452 5452 5452 5452 5452 5452 5452 5451 5449 5448
5433 5432 5431 5427 5426 5433 5437 5434 5433 5435 5434 5431 5430 5427 5424 5423 5422 5420 5419 5418 5415 5413 5413 5414 5413 5413 5414 5414 5415 5417 5417 5416 5417 5419 5419 5420 5422 5424 5426 5428 5428 5427 5429 5433 5435 5435 5435 5434 5433 5433 5432 5433 5434 5434 5435 5434 5434 5435 5436 5435 5436 5438 5439 5439 5440 5440 5440 5442 5442 5442 5443 5442 5442 5441 5441 5441 5442 5442 5442 5442 5442 5442 5442 5442 5441 5440 5439
5418 5415 5417 5417 5417 5422 5426 5422 5417 5418 5418 5417 5416 5414 5412 5410 5407 5404 5404 5405 5405 5402 5401 5403 5404 5403 5403 5403 5404 5405 5406 5406 5406 5406 5406 5406 5406 5408 5411 5412 5414 5414 5415 5419 5422 5423 5423 5421 5420 5421 5421 5421 5423 5424 5423 5422 5422 5423 5424 5424 5425 5427 5427 5428 5428 5428 5429 5430 5431 5431 5432 5432 5432 5432 5431 5431 5431 5431 5432 5432 5432 5432 5432 5432 5432 5431 5430
5408 5403 5406 5411 5409 5409 5412 5410 5403 5401 5404 5404 5402 5399 5399 5397 5392 5389 5388 5390 5392 5389 5386 5387 5391 5393 5393 5392 5392 5392 5393 5396 5396 5395 5395 5395 5393 5395 5397 5398 5399 5400 5401 5404 5407 5409 5411 5410 5408 5409 5409 5410 5412 5413 5411 5410 5410 5411 5411 5412 5413 5414 5415 5416 5417 5417 5418 5419 5419 5420 5420 5421 5421 5422 5421 5421 5421 5421 5422 5422 5422 5422 5422 5422 5422 5421 5421
5400 5396 5399 5401 5397 5395 5399 5397 5391 5388 5389 5389 5387 5384 5383 5381 5378 5377 5375 5375 5376 5375 5371 5370 5374 5380 5381 5380 5380 5380 5380 5383 5385 5384 5384 5385 5383 5383 5384 5385 5384 5385 5387 5389 5391 5395 5399 5400 5398 5397 5398 5398 5400 5400 5399 5398 5399 5399 5400 5401 5402 5402 5403 5404 5405 5406 5406 5407 5408 5409 5409 5410 5410 5411 5411 5411 5411 5411 5412 5412 5413 5412 5412 5412 5412 5411 5411
5388 5387 5393 5392 5385 5385 5389 5385 5379 5377 5376 5374 5373 5370 5368 5367 5366 5365 5363 5361 5360 5359 5357 5355 5358 5364 5367 5365 5365 5367 5368 5369 5372 5373 5373 5374 5374 5374 5373 5372 5371 5372 5373 5376 5378 5381 5386 5388 5386 5384 5385 5386 5386 5386 5385 5386 5387 5388 5389 5390 5391 5391 5391 5393 5394 5394 5395 5396 5396 5397 5398 5398 5399 5400 5400 5401 5401 5402 5402 5402 5402 5403 5403 5403 5402 5402 5401
5376 5375 5381 5381 5376 5377 5378 5374 5370 5368 5365 5363 5361 5358 5355 5354 5353 5352 5351 5349 5347 5345 5345 5343 5343 5347 5352 5350 5348 5351 5354 5355 5357 5359 5360 5361 5363 5365 5364 5361 5360 5360 5361 5363 5365 5367 5370 5373 5371 5370 5372 5374 5373 5373 5373 5374 5375 5376 5377 5377 5378 5379 5380 5381 5382 5383 5384 5385 5386 5387 5387 5388 5389 5390 5390 5390 5391 5392 5392 5392 5392 5392 5392 5392 5392 5392 5390
5366 5367 5370 5369 5365 5366 5368 5366 5362 5359 5356 5352 5349 5347 5345 5343 5341 5340 5338 5337 5336 5333 5333 5333 5331 5333 5337 5337 5334 5334 5338 5341 5342 5342 5343 5346 5349 5351 5352 5350 5349 5349 5349 5350 5351 5353 5356 5357 5356 5356 5359 5361 5361 5361 5360 5361 5361 5362 5363 5364 5365 5367 5369 5370 5371 5372 5373 5374 5375 5376 5376 5378 5379 5380 5380 5381 5381 5381 5382 5382 5382 5382 5382 5382 5382 5381 5380
5356 5360 5360 5358 5353 5352 5357 5357 5352 5348 5346 5341 5337 5337 5335 5332 5329 5326 5325 5326 5326 5323 5322 5321 5320 5320 5322 5324 5322 5320 5323 5327 5327 5325 5325 5327 5331 5335 5336 5335 5335 5336 5336 5335 5336 5339 5342 5342 5341 5342 5346 5348 5349 5348 5347 5347 5348 5349 5350 5352 5353 5355 5357 5359 5360 5361 5362 5363 5364 5365 5366 5367 5368 5368 5370 5371 5371 5371 5372 5373 5372 5373 5373 5373 5372 5371 5370
5348 5350 5351 5349 5344 5342 5345 5345 5341 5338 5335 5330 5327 5326 5323 5320 5317 5314 5312 5313 5313 5312 5312 5311 5308 5305 5306 5309 5309 5307 5309 5313 5314 5312 5311 5311 5313 5316 5317 5317 5319 5321 5321 5321 5321 5323 5327 5327 5326 5328 5332 5336 5337 5336 5334 5333 5334 5335 5337 5339 5341 5344 5346 5347 5349 5350 5350 5352 5353 5354 5355 5356 5357 5357 5358 5359 5359 5360 5361 5362 5361 5361 5362 5363 5362 5361 5361
5342 5342 5342 5340 5336 5335 5336 5335 5331 5329 5325 5321 5319 5316 5312 5310 5308 5304 5302 5301 5299 5299 5300 5299 5296 5292 5292 5293 5294 5293 5294 5298 5299 5298 5298 5299 5299 5299 5299 5299 5301 5303 5306 5306 5305 5307 5310 5311 5312 5314 5318 5323 5326 5323 5320 5320 5320 5321 5323 5326 5328 5332 5333 5334 5336 5337 5338 5340 5341 5342 5344 5345 5346 5347 5347 5347 5348 5348 5349 5350 5349 5349 5350 5350 5350 5350 5350
5335 5334 5334 5332 5330 5329 5328 5325 5322 5319 5315 5311 5309 5306 5303 5300 5298 5296 5294 5292 5289 5286 5285 5285 5284 5280 5278 5279 5279 5277 5278 5281 5283 5281 5281 5284 5285 5283 5282 5283 5283 5285 5288 5289 5290 5292 5293 5295 5298 5300 5304 5310 5312 5309 5306 5306 5307 5308 5310 5312 5315 5318 5319 5321 5322 5324 5326 5328 5330 5331 5332 5332 5333 5334 5335 5335 5336 5336 5337 5338 5338 5338 5338 5337 5337 5337 5338
5328 5327 5326 5324 5322 5322 5319 5315 5312 5310 5306 5302 5298 5296 5294 5291 5289 5287 5285 5282 5280 5277 5273 5271 5271 5269 5266 5264 5263 5262 5262 5264 5266 5265 5264 5266 5269 5268 5267 5266 5266 5267 5269 5271 5275 5276 5276 5278 5282 5284 5289 5295 5295 5292 5292 5294 5294 5295 5297 5299 5300 5303 5305 5306 5308 5311 5313 5315 5316 5318 5319 5319 5320 5320 5321 5322 5322 5323 5324 5325 5326 5326 5326 5325 5326 5326 5326
5322 5321 5319 5316 5315 5314 5311 5306 5303 5301 5298 5294 5290 5286 5284 5282 5279 5278 5276 5273 5270 5267 5264 5261 5259 5258 5256 5252 5248 5248 5248 5248 5249 5250 5249 5249 5250 5251 5250 5250 5250 5250 5250 5253 5257 5259 5258 5261 5264 5268 5274 5279 5276 5273 5276 5279 5280 5282 5285 5286 5287 5289 5291 5293 5295 5298 5300 5301 5303 5304 5305 5306 5307 5307 5307 5307 5308 5309 5310 5312 5312 5313 5313 5314 5315 5315 5314
5317 5315 5312 5309 5306 5305 5302 5298 5295 5293 5290 5286 5282 5278 5275 5273 5270 5268 5266 5264 5261 5257 5256 5253 5248 5245 5245 5242 5237 5235 5235 5235 5235 5235 5234 5234 5233 5232 5233 5233 5233 5233 5234 5236 5239 5240 5240 5242 5245 5250 5257 5260 5257 5255 5258 5262 5265 5268 5270 5271 5273 5275 5277 5279 5282 5284 5286 5288 5289 5291 5292 5293 5294 5294 5293 5294 5295 5296 5297 5298 5299 5301 5302 5302 5303 5302 5300
5310 5308 5305 5302 5298 5296 5294 5291 5288 5285 5282 5278 5274 5271 5267 5263 5261 5260 5257 5255 5252 5249 5246 5243 5239 5235 5233 5230 5227 5224 5223 5223 5223 5222 5220 5220 5218 5216 5215 5215 5216 5217 5219 5221 5222 5223 5223 5225 5228 5233 5238 5239 5236 5236 5239 5243 5248 5253 5255 5256 5258 5260 5262 5265 5267 5269 5272 5275 5276 5277 5278 5279 5280 5281 5281 5282 5282 5282 5283 5284 5286 5288 5289 5290 5291 5289 5287
5302 5300 5297 5294 5291 5288 5286 5283 5280 5277 5274 5271 5267 5264 5260 5255 5252 5251 5249 5246 5243 5239 5236 5233 5230 5227 5223 5219 5216 5213 5210 5210 5210 5209 5207 5206 5204 5202 5200 5198 5199 5202 5205 5205 5205 5206 5208 5211 5213 5217 5221 5221 5219 5219 5222 5225 5230 5236 5239 5240 5243 5244 5246 5249 5251 5253 5256 5260 5262 5263 5263 5263 5265 5266 5267 5268 5269 5269 5269 5270 5271 5272 5274 5276 5276 5275 5274
5295 5292 5289 5286 5283 5281 5278 5276 5273 5270 5267 5263 5260 5257 5253 5249 5244 5242 5240 5237 5233 5230 5227 5223 5220 5218 5214 5210 5206 5203 5200 5198 5198 5197 5195 5194 5191 5189 5186 5184 5184 5188 5191 5191 5190 5190 5192 5195 5199 5202 5205 5205 5205 5206 5208 5210 5214 5218 5221 5224 5227 5228 5230 5232 5235 5237 5239 5241 5245 5247 5249 5249 5250 5250 5251 5253 5254 5255 5256 5256 5257 5258 5259 5260 5260 5260 5260
5287 5285 5282 5278 5276 5274 5271 5268 5265 5263 5260 5256 5253 5249 5246 5242 5237 5234 5231 5228 5224 5220 5217 5214 5211 5208 5204 5201 5197 5193 5190 5188 5187 5186 5184 5181 5179 5176 5174 5172 5172 5174 5177 5177 5177 5176 5178 5181 5185 5187 5188 5189 5191 5192 5194 5196 5200 5202 5205 5208 5210 5212 5214 5215 5218 5220 5222 5225 5228 5230 5232 5234 5235 5235 5237 5238 5239 5240 5242 5243 5244 5245 5246 5246 5246 5246 5246
5279 5277 5275 5271 5269 5267 5265 5262 5258 5255 5253 5250 5246 5242 5238 5233 5229 5225 5221 5218 5215 5211 5208 5205 5202 5198 5195 5191 5188 5185 5181 5178 5177 5175 5173 5170 5167 5165 5162 5161 5161 5162 5164 5165 5165 5165 5166 5169 5172 5174 5174 5176 5178 5179 5180 5183 5186 5188 5191 5193 5196 5198 5200 5202 5204 5206 5208 5211 5213 5215 5217 5219 5220 5222 5224 5225 5226 5227 5229 5229 5230 5232 5233 5234 5234 5234 5235
5271 5269 5267 5264 5261 5258 5256 5254 5251 5248 5245 5242 5238 5234 5230 5225 5220 5217 5212 5208 5205 5203 5200 5196 5193 5190 5186 5183 5180 5176 5173 5170 5168 5166 5163 5160 5158 5155 5153 5151 5151 5151 5152 5153 5153 5154 5156 5158 5160 5162 5163 5165 5167 5168 5170 5171 5174 5176 5179 5181 5183 5186 5189 5190 5192 5194 5196 5197 5199 5201 5203 5205 5207 5209 5211 5212 5213 5214 5216 5217 5219 5221 5222 5223 5224 5225 5226
5263 5261 5258 5256 5253 5249 5246 5244 5241 5237 5234 5232 5229 5226 5222 5217 5213 5209 5205 5201 5199 5196 5193 5189 5186 5182 5179 5176 5173 5169 5166 5162 5160 5157 5154 5151 5149 5147 5145 5144 5142 5142 5142 5143 5143 5144 5146 5148 5150 5152 5154 5156 5158 5159 5160 5162 5164 5167 5169 5171 5173 5176 5178 5179 5182 5184 5185 5186 5188 5189 5191 5193 5195 5196 5198 5200 5201 5203 5205 5207 5209 5212 5213 5215 5216 5217 5219
5255 5253 5250 5247 5244 5241 5237 5234 5231 5227 5224 5221 5218 5216 5213 5209 5205 5202 5199 5197 5194 5190 5187 5184 5180 5176 5173 5169 5166 5163 5159 5155 5152 5149 5146 5144 5142 5140 5138 5137 5135 5134 5135 5135 5135 5135 5137 5140 5141 5143 5145 5148 5149 5151 5152 5154 5156 5159 5161 5163 5165 5167 5169 5170 5172 5174 5175 5177 5178 5180 5181 5183 5184 5186 5188 5190 5192 5195 5197 5199 5202 5204 5206 5207 5209 5211 5213
5247 5245 5242 5239 5236 5233 5229 5226 5222 5219 5216 5213 5210 5207 5204 5201 5199 5197 5195 5192 5189 5185 5181 5178 5175 5171 5168 5164 5160 5157 5153 5149 5145 5142 5140 5137 5135 5133 5131 5130 5129 5128 5128 5129 5128 5128 5130 5132 5134 5135 5138 5140 5142 5144 5146 5148 5150 5152 5154 5156 5158 5159 5161 5163 5164 5166 5167 5169 5170 5172 5173 5174 5176 5178 5181 5183 5186 5188 5190 5193 5195 5197 5198 5201 5203 5204 5206
5239 5236 5233 5231 5228 5224 5221 5218 5214 5211 5208 5205 5202 5200 5197 5196 5194 5193 5191 5188 5184 5180 5176 5173 5170 5167 5163 5159 5156 5151 5147 5143 5140 5137 5134 5131 5129 5127 5125 5124 5123 5123 5123 5123 5123 5123 5124 5126 5127 5129 5132 5134 5136 5138 5140 5142 5144 5146 5147 5149 5151 5153 5154 5156 5158 5159 5160 5162 5163 5165 5166 5167 5169 5172 5174 5177 5179 5182 5184 5186 5188 5189 5191 5193 5195 5196 5197
5231 5228 5225 5222 5219 5216 5213 5210 5207 5204 5201 5198 5196 5195 5194 5192 5191 5189 5186 5183 5180 5176 5173 5170 5166 5162 5158 5155 5151 5146 5142 5138 5134 5131 5129 5126 5123 5121 5120 5118 5118 5118 5118 5118 5118 5118 5119 5121 5122 5124 5126 5128 5130 5132 5133 5135 5137 5139 5141 5143 5145 5147 5148 5150 5151 5153 5154 5155 5156 5158 5159 5160 5163 5165 5168 5170 5173 5175 5177 5179 5181 5182 5184 5186 5187 5188 5190
5223 5220 5217 5214 5211 5208 5206 5203 5201 5198 5196 5193 5191 5191 5190 5189 5188 5185 5183 5180 5177 5174 5170 5166 5163 5159 5154 5150 5146 5142 5138 5134 5130 5127 5124 5121 5119 5117 5116 5115 5114 5114 5113 5113 5114 5114 5115 5116 5118 5119 5121 5123 5124 5126 5128 5130 5132 5134 5136 5138 5139 5141 5142 5144 5145 5146 5147 5148 5150 5151 5153 5154 5157 5160 5162 5164 5167 5169 5171 5172 5174 5175 5177 5179 5180 5182 5184
5214 5211 5209 5206 5203 5201 5198 5196 5193 5192 5191 5189 5188 5187 5187 5186 5184 5182 5180 5178 5175 5172 5168 5164 5160 5156 5151 5146 5142 5138 5134 5131 5127 5124 5121 5118 5116 5114 5113 5112 5111 5111 5110 5110 5111 5111 5112 5113 5114 5116 5117 5119 5120 5122 5124 5126 5127 5129 5131 5133 5134 5135 5137 5138 5139 5140 5141 5142 5144 5145 5147 5149 5152 5154 5157 5159 5161 5163 5164 5166 5167 5169 5171 5172 5174 5176 5177
5206 5203 5201 5198 5196 5193 5191 5188 5187 5186 5186 5186 5185 5185 5184 5183 5182 5180 5179 5177 5174 5171 5167 5162 5158 5153 5149 5145 5140 5136 5132 5129 5126 5122 5119 5117 5114 5112 5111 5109 5109 5108 5108 5108 5108 5108 5109 5110 5111 5112 5113 5115 5116 5118 5120 5121 5123 5124 5126 5127 5129 5130 5131 5132 5133 5134 5135 5137 5139 5141 5143 5145 5147 5149 5151 5153 5155 5157 5158 5160 5161 5163 5165 5166 5168 5170 5172
5197 5195 5193 5191 5188 5186 5184 5182 5182 5182 5182 5182 5182 5182 5181 5181 5180 5179 5178 5176 5173 5170 5166 5161 5157 5153 5149 5144 5140 5136 5132 5128 5125 5121 5118 5115 5113 5111 5109 5108 5107 5106 5106 5106 5106 5106 5107 5107 5108 5109 5110 5111 5113 5114 5116 5117 5118 5119 5121 5122 5123 5125 5126 5127 5129 5130 5131 5133 5135 5137 5139 5141 5143 5145 5146 5148 5149 5151 5153 5154 5156 5157 5159 5161 5163 5166 5169
5190 5187 5185 5183 5181 5179 5178 5177 5178 5178 5179 5179 5179 5179 5179 5179 5178 5178 5176 5175 5172 5169 5165 5161 5157 5153 5149 5144 5140 5136 5132 5128 5124 5120 5117 5114 5112 5110 5108 5107 5106 5105 5105 5105 5104 5104 5105 5105 5106 5107 5108 5109 5110 5111 5112 5113 5114 5115 5117 5118 5119 5121 5122 5124 5125 5126 5128 5129 5131 5133 5135 5136 5138 5140 5141 5143 5145 5147 5148 5149 5151 5153 5155 5158 5161 5164 5167
5182 5180 5177 5176 5174 5173 5173 5174 5175 5175 5176 5176 5176 5176 5176 5177 5177 5176 5175 5173 5171 5168 5165 5162 5158 5154 5149 5145 5141 5137 5133 5129 5125 5121 5117 5114 5112 5110 5108 5106 5105 5104 5104 5103 5103 5103 5103 5103 5104 5105 5105 5106 5107 5108 5109 5110 5111 5112 5114 5115 5116 5118 5119 5120 5122 5123 5124 5126 5127 5129 5130 5132 5134 5135 5137 5139 5141 5142 5144 5146 5148 5151 5153 5156 5160 5163 5166
5175 5173 5171 5170 5169 5170 5170 5171 5172 5173 5173 5173 5174 5175 5175 5175 5175 5174 5173 5172 5170 5168 5165 5162 5158 5154 5150 5146 5142 5139 5135 5132 5127 5123 5120 5117 5113 5111 5109 5107 5106 5104 5104 5103 5102 5102 5102 5102 5103 5103 5104 5105 5105 5106 5107 5108 5109 5110 5111 5113 5114 5115 5116 5117 5118 5119 5120 5122 5123 5125 5126 5128 5130 5132 5134 5136 5137 5139 5141 5144 5147 5150 5153 5156 5160 5163 5165
5168 5167 5166 5166 5167 5167 5168 5169 5170 5170 5170 5171 5173 5174 5174 5174 5173 5173 5172 5170 5169 5167 5165 5162 5158 5154 5151 5147 5144 5141 5138 5135 5131 5128 5125 5121 5118 5115 5112 5110 5108 5106 5105 5104 5103 5103 5103 5102 5103 5103 5103 5104 5104 5105 5106 5107 5107 5108 5109 5110 5111 5112 5113 5114 5115 5116 5117 5119 5121 5123 5124 5126 5128 5130 5131 5133 5135 5138 5141 5144 5147 5151 5154 5157 5159 5162 5164
5163 5163 5163 5164 5165 5166 5167 5167 5167 5168 5169 5171 5172 5172 5172 5172 5172 5171 5170 5169 5168 5167 5164 5162 5159 5156 5152 5149 5146 5143 5140 5137 5134 5131 5128 5125 5122 5120 5117 5115 5112 5110 5108 5107 5107 5106 5105 5105 5104 5104 5104 5104 5105 5105 5106 5106 5107 5108 5109 5109 5110 5112 5113 5114 5115 5116 5117 5119 5120 5122 5123 5125 5127 5128 5130 5133 5135 5138 5142 5145 5148 5152 5154 5156 5158 5160 5162
5161 5161 5162 5162 5163 5164 5165 5166 5167 5168 5169 5170 5171 5171 5171 5171 5171 5170 5169 5168 5167 5165 5164 5162 5159 5157 5154 5151 5148 5145 5142 5140 5137 5134 5131 5129 5126 5124 5121 5119 5117 5115 5114 5113 5112 5111 5110 5109 5109 5109 5108 5108 5109 5109 5109 5109 5110 5110 5111 5112 5113 5114 5115 5117 5118 5119 5120 5121 5122 5123 5124 5126 5128 5130 5132 5134 5137 5140 5143 5146 5149 5152 5154 5156 5157 5159 5160
5159 5160 5160 5161 5162 5163 5164 5165 5167 5168 5169 5169 5169 5169 5169 5170 5170 5169 5168 5167 5166 5164 5163 5161 5160 5158 5156 5153 5151 5148 5145 5143 5140 5137 5135 5133 5130 5128 5126 5125 5123 5121 5120 5119 5118 5117 5117 5116 5116 5115 5115 5115 5115 5116 5116 5116 5116 5116 5117 5117 5118 5119 5120 5121 5122 5123 5124 5124 5125 5126 5127 5128 5130 5132 5134 5136 5139 5142 5145 5147 5149 5151 5153 5154 5155 5156 5157
5158 5158 5159 5160 5161 5163 5164 5165 5167 5167 5168 5168 5168 5168 5168 5168 5168 5168 5167 5166 5165 5164 5163 5161 5160 5158 5156 5155 5152 5150 5148 5146 5144 5141 5139 5137 5135 5133 5132 5130 5129 5127 5126 5125 5124 5124 5123 5123 5122 5122 5122 5122 5122 5122 5122 5123 5123 5123 5124 5124 5124 5125 5125 5125 5126 5126 5127 5127 5128 5129 5130 5131 5133 5134 5136 5139 5141 5143 5145 5147 5148 5150 5151 5152 5152 5153 5153
5157 5157 5159 5160 5162 5163 5164 5165 5166 5166 5166 5167 5167 5167 5167 5167 5167 5167 5166 5165 5164 5163 5162 5161 5159 5158 5157 5155 5154 5152 5150 5148 5147 5145 5143 5142 5140 5138 5137 5135 5134 5133 5132 5131 5130 5130 5129 5129 5128 5128 5128 5127 5127 5127 5127 5127 5127 5127 5127 5127 5128 5128 5128 5128 5128 5129 5129 5130 5131 5131 5132 5134 5135 5136 5138 5140 5141 5143 5144 5145 5146 5147 5148 5148 5148 5149 5149